Location: Bzów
(50.4729°N, 19.5112°E)
Time: 10:42:46
(UTC+00:00)

Daily predictions for brighter satellites

Satellite Brightness Start Highest point End
(mag) Time Altitude Azimuth Time Altitude Azimuth Time Altitude Azimuth
Cosmos 1300 Rocket 3.5 18:11:52 10° S 18:16:15 82° E 18:20:42 10° NNE
USA 234 3.5 18:12:29 10° SE 18:19:01 73° SW 18:25:35 10° WNW
USA 281 3.4 18:13:42 10° SE 18:20:09 61° NE 18:26:36 10° NNW
NOSS 3-1 (C) 3.1 18:18:27 10° SW 18:23:25 76° SE 18:29:28 10° NE
Cosmos 2344 4.3 18:17:02 10° WSW 18:24:13 55° NW 18:31:49 10° NE
Cosmos 2227 Rocket 3.6 18:20:40 10° NNW 18:25:19 25° NE 18:29:58 10° E
Cosmos 2151 Rocket 4.4 18:21:47 10° SSE 18:25:37 30° E 18:29:30 10° NNE
ATLAS CENTAUR R/B 3.3 18:28:35 10° NNW 18:31:05 17° NNE 18:33:39 10° ENE
CSL-04 Debris 4.3 18:26:04 10° SSE 18:31:31 86° WSW 18:37:02 10° NNW
Cosmos 1346 Rocket 4.4 18:29:09 10° SW 18:32:44 38° WNW 18:36:20 10° N
ATLAS 3B R/B 2.9 18:30:05 10° SSW 18:37:02 60° ESE 18:44:29 10° NE
Cosmos 371 Rocket 3.4 18:32:57 10° NNW 18:37:44 64° ENE 18:42:29 10° SE
Cosmos 1697 Rocket 4.4 18:37:21 11° ESE 18:38:56 12° E 18:40:57 10° ENE
COSMOS 2455 3.5 18:33:45 10° NNW 18:39:32 44° NE 18:44:51 12° ESE
SL-4 R/B 1.8 18:36:05 10° W 18:39:46 74° N 18:43:07 11° E
CSL-04 Rocket 3.9 18:34:30 10° SSE 18:40:01 80° WSW 18:45:30 10° NNW
Iridium 2 4.2 18:37:50 10° NNE 18:40:24 26° ENE 18:42:18 14° SE
Cosmos 1777 Rocket 4.2 18:35:15 10° NNW 18:40:29 60° ENE 18:45:32 11° SE
Cosmos 304 Rocket 4.0 18:37:01 10° NNW 18:41:45 57° ENE 18:46:06 12° SE
Okean 2 Rocket 3.4 18:43:18 10° SSE 18:47:36 46° E 18:51:55 10° NNE
Cosmos 1992 Rocket 4.4 18:44:48 10° SSW 18:49:59 68° WNW 18:55:14 10° NNE
CZ-4C R/B 3.4 18:43:53 10° NW 18:50:17 49° NE 18:57:31 12° ESE
SPOT 5 3.4 18:46:55 11° SE 18:51:48 50° ENE 18:56:50 10° N
Cosmos 2297 Rocket 2.5 18:48:43 10° NNW 18:54:17 55° NE 18:58:47 16° SE
Cosmos 1503 Rocket 4.1 18:52:40 10° NNW 18:58:04 85° WSW 19:03:17 11° SSE
Cosmos 2369 Rocket 4.2 18:53:57 10° WSW 18:59:00 32° NW 19:04:04 10° NNE
Cosmos 405 Rocket 4.4 18:59:06 15° E 18:59:34 16° E 19:01:50 10° NE
Spot 2 Rocket 4.4 18:56:18 15° ESE 18:59:42 32° ENE 19:04:09 10° N
Cosmos 1354 Rocket 4.0 18:55:37 10° NNW 19:00:59 81° ENE 19:05:34 14° SSE
Cosmos 1656 4.0 18:56:35 10° S 19:01:44 40° ESE 19:06:51 10° NE
BlueWalker 3 2.5 18:59:12 10° SSW 19:02:43 35° SE 19:06:06 11° ENE
Terra 2.6 19:01:26 17° ESE 19:04:27 35° ENE 19:08:45 10° N
ATLAS 5 CENTAUR R/B 1.8 19:03:36 10° WSW 19:06:57 55° NW 19:10:46 10° NE
Cosmos 2219 4.5 19:03:53 10° NNW 19:08:48 29° NE 19:12:38 14° E
Cosmos 2098 Rocket 4.3 19:04:27 10° SSW 19:08:51 42° WNW 19:12:31 10° N
Iridium 4 Rocket 3.9 19:04:24 10° SSE 19:09:45 54° E 19:15:25 10° N
Cosmos 332 Rocket 4.2 19:05:27 10° NNW 19:10:12 51° ENE 19:13:17 21° SE
Cosmos 1455 Rocket 4.3 19:09:46 20° ESE 19:11:06 23° E 19:14:33 10° NE
Okean 1 Rocket 3.3 19:06:57 11° SSE 19:11:07 50° E 19:15:27 10° NNE
Sich 1 Rocket 3.5 19:06:43 10° S 19:11:07 79° E 19:15:36 10° NNE
USA 245 4.1 19:09:43 18° SE 19:13:13 49° ENE 19:17:19 10° N
Okean-O 2.9 19:11:14 10° S 19:15:38 68° WSW 19:20:03 10° NNW
NOSS 8 (F) 4.4 19:15:45 10° NW 19:18:47 69° NE 19:20:27 28° ESE
Ariane Rocket 3.4 19:16:23 21° SE 19:19:25 46° ENE 19:24:14 10° N
Cosmos 1763 Rocket 4.2 19:17:53 20° SSE 19:20:26 31° ESE 19:24:55 10° NE
CZ-4C R/B 2.9 19:17:15 10° NNE 19:20:41 85° WNW 19:24:03 10° SSW
Cosmos 2263 Rocket 3.6 19:16:08 10° NNW 19:20:47 25° NE 19:24:25 14° E
Nadezhda 3 Rocket 4.3 19:17:04 10° SSW 19:23:11 69° WNW 19:29:24 10° N
Cosmos 1437 Rocket 3.5 19:20:28 10° N 19:24:07 36° ENE 19:25:29 27° ESE
USA 267 3.6 19:18:08 10° ENE 19:24:39 70° NNW 19:31:09 10° WSW
Genesis I 3.6 19:21:31 10° NW 19:25:02 48° SW 19:26:55 24° S
Cosmos 44 3.8 19:21:17 10° S 19:26:23 44° ESE 19:31:26 10° NE
BREEZE-M R/B 2.3 19:25:06 10° W 19:27:27 39° SSW 19:27:40 38° S
Cosmos 990 Rocket 4.1 19:23:54 10° NNW 19:29:03 61° ENE 19:31:51 26° SE
Cosmos 1605 Rocket 4.0 19:23:32 10° N 19:29:57 70° ENE 19:34:28 20° SSE
Okean O Rocket 3.5 19:26:59 10° SSW 19:30:41 27° W 19:34:26 10° NW
Aureole 1 Rocket 3.0 19:31:17 10° N 19:34:04 34° ENE 19:34:29 32° E
Cosmos 540 Rocket 4.1 19:39:04 29° SE 19:40:20 33° ESE 19:44:54 10° NE
Resurs 01 Rocket 4.0 19:42:23 10° SW 19:45:38 20° W 19:48:53 10° NW
IRS-1C Rocket 4.5 19:42:38 17° S 19:46:44 62° WSW 19:52:00 10° NNW
MOS 1 Rocket 3.7 19:46:11 33° ESE 19:47:27 42° ENE 19:51:37 10° N
Cosmos 2058 3.4 19:46:01 10° N 19:49:51 40° ENE 19:50:33 37° E
CENTAUR R/B 3.5 19:43:46 10° NW 19:51:35 61° NE 19:57:39 22° ESE
Cosmos 468 Rocket 4.4 19:51:31 34° SE 19:52:48 40° ESE 19:57:40 10° NE
NOSS 3-1 (A) 3.7 19:48:34 10° WSW 19:53:39 62° NW 19:59:55 10° NE
ERS-1 Rocket 3.0 19:51:26 26° S 19:54:18 77° WSW 19:59:21 10° NNW
SPOT 3 Rocket 3.5 19:55:09 32° SSE 19:57:39 83° ENE 20:02:52 10° NNW
Cosmos 546 4.4 19:55:20 10° W 19:59:06 87° S 19:59:52 55° ESE
USA 229 DEB 3.4 19:56:14 10° SSW 20:02:22 72° SE 20:09:11 10° NE
USA 229 3.4 19:56:20 10° SSW 20:02:28 72° SE 20:09:16 10° NE
USA 281 4.5 19:59:04 10° SSW 20:04:57 34° WSW 20:10:53 10° NW
Landsat 5 3.6 20:02:36 10° NNE 20:06:45 49° E 20:06:58 48° ESE
Cosmos 2100 Rocket 4.3 20:00:51 10° N 20:07:06 54° ENE 20:09:32 35° SE
Cosmos 1727 Rocket 4.1 20:04:27 32° SSE 20:07:18 58° E 20:13:25 10° NNE
ATLAS CENTAUR R/B 1.1 20:05:43 10° NW 20:09:28 72° NE 20:09:58 61° E
Cosmos 2227 Rocket 2.2 20:04:20 10° NNW 20:10:04 82° WSW 20:12:21 38° SSE
Cosmos 1544 Rocket 4.3 20:12:25 35° E 20:12:25 35° E 20:16:07 10° NNE
Cosmos 1980 Rocket 3.0 20:13:32 30° E 20:13:32 30° E 20:18:06 10° NE
Cosmos 1892 Rocket 3.9 20:12:26 10° NNW 20:16:42 59° W 20:18:10 37° SSW
Cosmos 292 Rocket 3.8 20:12:41 10° NNW 20:17:26 66° ENE 20:18:28 50° ESE
H-2A R/B 4.1 20:18:14 19° ENE 20:18:14 19° ENE 20:20:57 10° NNE
SL-4 R/B 2.2 20:15:03 10° WNW 20:17:57 44° WSW 20:17:57 44° WSW
Cosmos 1697 Rocket 2.6 20:18:57 30° S 20:21:49 68° ESE 20:27:28 10° NNE
Cosmos 1937 Rocket 3.7 20:16:57 10° NNW 20:22:15 62° ENE 20:23:39 45° ESE
Cosmos 2360 4.1 20:17:19 10° SSW 20:23:01 88° SE 20:28:46 10° NNE
COSMOS 2455 3.4 20:19:47 10° NW 20:25:34 48° WSW 20:27:59 32° S
Okean 1-7 Rocket 4.2 20:22:07 10° N 20:26:27 42° ENE 20:26:45 42° E
ATLAS 3B R/B 3.8 20:21:02 10° WSW 20:28:05 50° NNW 20:35:35 10° NE
MetOp-A 3.1 20:30:40 77° SW 20:30:49 79° WSW 20:34:39 10° NNW
Cosmos 1602 Rocket 4.0 20:30:00 10° N 20:34:12 45° ENE 20:34:13 45° ENE
Cosmos 405 Rocket 3.5 20:33:26 37° WSW 20:34:25 48° WNW 20:38:02 10° N
Cosmos 1758 Rocket 3.8 20:30:30 10° N 20:34:52 52° ENE 20:35:01 52° E
Cosmos 1898 Rocket 3.4 20:29:35 10° NNW 20:34:53 83° WSW 20:36:04 55° S
Cosmos 2228 3.7 20:38:16 38° ENE 20:38:16 38° ENE 20:41:31 10° NNE
Cosmos 2297 Rocket 3.6 20:33:12 10° NW 20:38:03 30° WSW 20:40:36 21° SW
Spot 2 Rocket 4.4 20:36:25 28° SSW 20:38:32 42° W 20:43:20 10° NNW
CZ-4C R/B 3.1 20:32:11 10° NW 20:39:12 65° SW 20:42:37 38° SSE
ARIANE 5 R/B 3.2 20:39:49 44° ENE 20:40:03 44° ENE 20:44:19 10° N
USA 81 4.0 20:38:46 43° SSW 20:40:31 80° W 20:45:49 10° N
BlueWalker 3 2.0 20:36:59 10° WSW 20:40:37 72° NW 20:40:37 72° NW
Terra 3.1 20:40:08 25° SW 20:42:03 34° W 20:46:22 10° NNW
Meteor 2-13 Rocket 4.3 20:43:01 44° S 20:45:07 82° E 20:51:19 10° NNE
Cosmos 2369 4.2 20:45:58 41° E 20:45:58 41° E 20:50:50 10° NE
Meteor 2-1 Rocket 4.0 20:45:48 53° S 20:47:08 81° E 20:52:40 10° NNE
Cosmos 1455 Rocket 4.1 20:46:46 27° SW 20:48:38 43° WNW 20:52:50 10° N
Cosmos 1725 Rocket 4.1 20:42:54 10° N 20:49:03 63° ENE 20:50:29 50° SE
Cosmos 2233 Rocket 4.5 20:43:31 10° N 20:49:26 45° ENE 20:50:44 40° ESE
Cosmos 1459 Rocket 3.8 20:44:16 10° N 20:50:22 88° WSW 20:52:04 50° S
ATLAS 5 CENTAUR R/B 4.2 20:49:13 10° WNW 20:51:47 17° NNW 20:54:37 10° NNE
Cosmos 2219 3.3 20:47:48 10° NNW 20:53:25 68° WSW 20:54:33 54° S
Cosmos 2061 Rocket 4.3 20:49:16 10° N 20:55:37 56° ENE 20:57:03 46° ESE
Ariane Rocket 4.5 20:56:31 22° SW 20:58:31 29° W 21:02:55 10° NW
ALOS 2 4.1 20:58:34 24° ENE 20:58:37 25° ENE 21:02:10 10° N
Cosmos 1763 Rocket 4.5 20:57:45 13° SW 21:02:03 44° WNW 21:07:00 10° NNE
Cosmos 858 Rocket 4.4 20:56:59 10° NNW 21:02:18 83° WSW 21:02:52 71° S
Cosmos 2263 Rocket 2.0 20:59:42 10° NNW 21:05:21 79° WSW 21:06:06 66° S
Cosmos 1862 4.1 21:02:31 10° N 21:05:30 43° NNE 21:05:30 43° NNE
USA 267 4.0 21:00:58 10° ENE 21:07:16 51° N 21:13:33 10° WNW
Cosmos 2082 3.6 21:06:10 10° NNW 21:11:49 73° WSW 21:12:29 65° SSW
Cosmos 2173 Rocket 4.4 21:08:50 10° NNW 21:15:05 59° W 21:17:01 42° SSW
Cosmos 1271 Rocket 4.3 21:12:09 10° N 21:14:33 28° NE 21:14:33 28° NE
NOSS 3-2 (A) 4.0 21:10:02 10° NW 21:17:19 83° SW 21:19:58 49° SSE
Meteor 2-3 Rocket 3.9 21:13:05 10° NNW 21:18:44 65° W 21:19:41 56° SW
Cosmos 2322 Rocket 4.1 21:22:12 15° ENE 21:22:12 15° ENE 21:24:08 10° ENE
Cosmos 1606 3.9 21:23:39 39° NNW 21:23:39 39° NNW 21:26:13 10° N
Spot 4 4.0 21:30:18 64° NE 21:30:18 64° NE 21:34:51 10° N
Meteor 2-15 Rocket 4.5 21:25:54 10° NNW 21:32:01 70° W 21:33:02 58° SSW
Meteor 2-19 Rocket 4.4 21:32:04 62° ESE 21:32:30 64° E 21:38:33 10° NNE
Cosmos 1802 Rocket 4.4 21:31:29 10° NNW 21:37:33 54° W 21:38:59 45° SW
SL-16 R/B 3.2 21:41:08 32° E 21:41:08 32° E 21:45:04 10° NE
Cosmos 1844 4.4 21:34:54 10° NNW 21:40:27 46° NE 21:41:36 41° E
USA 238 DEB 4.2 21:34:54 10° NW 21:42:01 60° NE 21:45:34 33° ESE
USA 238 4.3 21:34:59 10° NW 21:42:06 60° NE 21:45:42 33° ESE
CENTAUR R/B 3.5 21:34:32 10° NW 21:42:33 55° WSW 21:44:48 45° SSW
Cosmos 1953 Rocket 4.2 21:38:35 10° N 21:42:01 51° NNE 21:42:01 51° NNE
Cosmos 841 Rocket 4.0 21:43:35 48° W 21:44:28 55° WNW 21:49:32 10° NNE
Cosmos 2016 Rocket 4.3 21:38:55 10° NNW 21:44:52 55° W 21:45:55 49° SW
ATLAS CENTAUR R/B 3.9 21:44:29 10° WNW 21:45:04 12° W 21:45:04 12° W
Cosmos 1844 Rocket 2.9 21:44:23 10° NNW 21:49:57 57° NE 21:50:30 55° E
Cosmos 1125 Rocket 3.9 21:46:17 10° NNW 21:51:27 54° ENE 21:51:35 54° ENE
H-2A R/B 3.9 21:54:16 31° NW 21:54:16 31° NW 21:56:35 10° NNW
Cosmos 2227 Rocket 4.2 21:50:06 10° WNW 21:53:12 15° W 21:54:10 15° WSW
Cosmos 1980 Rocket 2.8 21:55:14 39° WSW 21:56:57 54° NW 22:02:31 10° NNE
Timation 2 Rocket 4.5 21:55:09 10° NNW 22:01:43 55° NE 22:03:23 44° E
Cosmos 2278 3.8 22:02:49 64° E 22:02:49 64° E 22:07:56 10° NNE
Cosmos 1697 Rocket 4.5 22:01:23 10° WSW 22:06:16 29° NW 22:11:11 10° NNE
Cosmos 2151 3.9 22:03:33 10° NNW 22:06:35 46° NNW 22:06:35 46° NNW
ARIANE 5 R/B 4.4 22:17:17 24° W 22:17:17 24° W 22:20:20 10° NW
Cosmos 2237 4.1 22:29:24 81° ENE 22:29:24 81° ENE 22:34:54 10° NNE
H-2A R/B 3.1 22:28:00 10° NNE 22:30:49 40° NNE 22:30:49 40° NNE
Lacrosse 4 Rocket 2.8 22:33:41 36° N 22:33:41 36° N 22:36:20 10° NNE
Cosmos 2150 Rocket 4.2 22:27:53 10° NNW 22:32:46 67° NE 22:32:46 67° NE
NOSS 3-2 (C) 4.1 22:26:07 10° NW 22:33:25 63° SW 22:34:32 58° SSW
ALOS 2 3.8 22:35:57 36° NW 22:35:57 36° NW 22:38:58 10° NNW
Cosmos 2298 Rocket 4.1 22:31:31 10° NNW 22:36:37 73° NE 22:36:37 73° NE
ATLAS 5 CENTAUR R/B 4.5 22:34:37 10° NNW 22:37:18 16° NNE 22:40:19 10° NE
Cosmos 1464 Rocket 3.9 22:38:06 10° N 22:44:31 85° W 22:44:59 77° SSW
Cosmos-2242 4.2 22:46:33 38° NE 22:46:33 38° NE 22:49:20 10° NNE
Cosmos 2058 Rocket 4.0 22:47:28 44° NNW 22:47:28 44° NNW 22:50:43 10° N
Cosmos 2263 Rocket 4.3 22:45:29 10° WNW 22:47:47 14° W 22:47:47 14° W
USA 267 3.6 22:43:21 10° E 22:49:48 63° NNE 22:56:16 10° WNW
Cosmos 2360 Rocket 2.4 22:51:06 57° E 22:51:06 57° E 22:56:07 10° NE
Cosmos 1867 4.3 22:52:46 10° NW 22:58:06 49° NE 22:59:55 36° E
Meteor 2-21 4.3 22:58:06 78° SW 22:58:30 84° W 23:04:46 10° N
Aureole 3 Rocket 4.2 22:54:55 10° N 22:58:11 38° NNE 22:58:11 38° NNE
Meteor 1-20 Rocket 4.3 22:53:44 10° NNW 22:59:08 68° W 22:59:08 68° W
Meteor 2-21 Rocket 4.3 22:59:01 73° SE 22:59:23 76° E 23:05:36 10° NNE
Cosmos 1570 Rocket 4.1 23:02:43 69° NW 23:02:43 69° NW 23:07:41 10° NNE
Cosmos 2333 Rocket 2.3 23:03:47 62° E 23:03:47 62° E 23:08:59 10° NE
Cosmos 2322 Rocket 2.1 23:03:59 86° N 23:03:59 86° N 23:09:31 10° NNE
Cosmos 2278 Rocket 3.9 22:59:21 10° NNW 23:04:17 29° NE 23:09:03 10° ESE
Lacrosse 5 2.5 23:05:56 48° ENE 23:05:56 48° ENE 23:09:41 10° ENE
Cosmos 2219 Rocket 2.9 23:05:42 41° E 23:05:42 41° E 23:10:25 10° NE
Cosmos 2034 Rocket 3.8 23:00:26 10° N 23:06:38 84° W 23:07:00 79° SSW
Meteor 1-25 Rocket 4.3 23:05:45 10° NNW 23:11:03 65° WNW 23:11:03 65° WNW
USA 32 4.1 23:12:06 72° ENE 23:12:06 72° ENE 23:17:03 10° N
Cosmos 2221 4.0 23:13:29 29° ENE 23:13:29 29° ENE 23:16:27 10° NNE
CZ-2D R/B 4.4 23:11:03 10° ENE 23:13:40 14° E 23:15:10 12° ESE
Geosat 4.1 23:20:32 71° NW 23:20:32 71° NW 23:25:03 10° NNW
Cosmos 1782 4.2 23:24:05 35° N 23:24:05 35° N 23:26:27 10° N
SL-16 R/B 2.8 23:22:58 43° W 23:23:55 47° NW 23:29:25 10° NNE
Cosmos 1634 Rocket 4.0 23:21:14 10° N 23:27:36 77° E 23:28:37 63° SE
USA 238 DEB 4.2 23:26:00 10° NW 23:32:57 48° WSW 23:32:57 48° WSW
USA 238 4.2 23:26:06 10° NW 23:33:06 48° WSW 23:33:06 48° WSW
Cosmos 1844 Rocket 4.1 23:28:47 10° NW 23:32:08 25° W 23:32:08 25° W
IDEFIX/ARIANE 42P 4.0 23:34:36 10° NE 23:38:55 26° E 23:39:49 25° ESE
Resurs 1-4 Rocket 3.8 23:35:09 10° NE 23:39:15 22° E 23:40:30 20° ESE
Cosmos 158 Rocket 4.2 23:41:25 55° WNW 23:41:25 55° WNW 23:46:17 10° NNE
Cosmos 1943 Rocket 3.9 23:36:46 10° NNW 23:41:48 31° NE 23:46:50 10° ESE
Meteor 2-2 Rocket 4.5 23:48:58 57° W 23:49:32 59° WNW 23:55:27 10° N
NOSS 2-2 (E) 4.0 23:46:49 10° NW 23:50:58 69° NE 23:52:11 49° ESE
Cosmos 1766 Rocket 3.9 23:47:46 10° N 23:51:19 59° N 23:51:19 59° N
Cosmos 1743 3.9 23:51:03 10° N 23:53:28 38° N 23:53:28 38° N
